| time (UTC) | temp F | wind direction | speed MPH | gust MPH | rain 1hr in | rain 24hr in | rain mn in | humidity % | barometer mb |
| 20260510213109 | 59 | 48 | 3.0 | 8.0 | 0.00 | 0.00 | 0.00 | 43 | 1019.1 |
| 20260510213037 | 59 | 38 | 0.0 | 1.0 | 0.00 | 0.00 | 0.00 | 43 | 1017.2 |
| 20260510212601 | 60 | 61 | 2.0 | 5.0 | 0.00 | 0.00 | 0.00 | 42 | 1018.9 |
| 20260510212524 | 60 | 58 | 0.0 | 1.0 | 0.00 | 0.00 | 0.00 | 42 | 1017.0 |
| 20260510212102 | 59 | 93 | 1.0 | 4.0 | 0.00 | 0.00 | 0.00 | 49 | 1018.9 |
| 20260510212022 | 59 | 54 | 0.0 | 0.0 | 0.00 | 0.00 | 0.00 | 47 | 1016.8 |
| 20260510211637 | 58 | 94 | 1.0 | 5.0 | 0.00 | 0.00 | 0.00 | 45 | 1018.8 |
| 20260510211527 | 58 | 54 | 0.0 | 0.0 | 0.00 | 0.00 | 0.00 | 48 | 1016.8 |
| 20260510211100 | 58 | 66 | 2.0 | 5.0 | 0.00 | 0.00 | 0.00 | 44 | 1018.8 |
| 20260510211018 | 59 | 55 | 0.0 | 0.0 | 0.00 | 0.00 | 0.00 | 42 | 1016.8 |
| 20260510210602 | 58 | 39 | 2.0 | 6.0 | 0.00 | 0.00 | 0.00 | 44 | 1018.8 |
| 20260510210517 | 58 | 55 | 0.0 | 1.0 | 0.00 | 0.00 | 0.00 | 46 | 1016.8 |
| 20260510210058 | 58 | 76 | 2.0 | 9.0 | 0.00 | 0.00 | 0.00 | 45 | 1018.8 |
| 20260510210037 | 58 | 55 | 0.0 | 1.0 | 0.00 | 0.00 | 0.00 | 46 | 1016.9 |
| 20260510205604 | 58 | 69 | 3.0 | 9.0 | 0.00 | 0.00 | 0.00 | 49 | 1018.8 |
| 20260510205519 | 58 | 55 | 0.0 | 2.0 | 0.00 | 0.00 | 0.00 | 49 | 1016.8 |
| 20260510205059 | 59 | 331 | 4.0 | 7.0 | 0.00 | 0.00 | 0.00 | 44 | 1018.8 |
| 20260510205017 | 59 | 46 | 0.0 | 2.0 | 0.00 | 0.00 | 0.00 | 44 | 1016.7 |
| 20260510204601 | 59 | 75 | 2.0 | 9.0 | 0.00 | 0.00 | 0.00 | 44 | 1018.9 |
| 20260510204517 | 59 | 360 | 0.0 | 1.0 | 0.00 | 0.00 | 0.00 | 45 | 1016.7 |
| 20260510204100 | 59 | 89 | 2.0 | 10.0 | 0.00 | 0.00 | 0.00 | 46 | 1018.9 |
| 20260510204016 | 59 | 355 | 0.0 | 1.0 | 0.00 | 0.00 | 0.00 | 45 | 1016.8 |
| 20260510203600 | 60 | 14 | 3.0 | 10.0 | 0.00 | 0.00 | 0.00 | 44 | 1019.0 |
| 20260510203516 | 60 | 11 | 0.0 | 3.0 | 0.00 | 0.00 | 0.00 | 43 | 1016.8 |
| 20260510203101 | 60 | 53 | 5.0 | 10.0 | 0.00 | 0.00 | 0.00 | 43 | 1019.0 |
| 20260510203017 | 60 | 42 | 0.0 | 2.0 | 0.00 | 0.00 | 0.00 | 39 | 1016.8 |
| 20260510202618 | 60 | 346 | 0.0 | 3.0 | 0.00 | 0.00 | 0.00 | 41 | 1016.8 |
| 20260510202601 | 60 | 306 | 2.0 | 9.0 | 0.00 | 0.00 | 0.00 | 40 | 1019.0 |
| 20260510202103 | 60 | 37 | 3.0 | 9.0 | 0.00 | 0.00 | 0.00 | 46 | 1019.1 |
| 20260510202013 | 60 | 53 | 0.0 | 4.0 | 0.00 | 0.00 | 0.00 | 51 | 1017.0 |
| 20260510201559 | 60 | 53 | 5.0 | 9.0 | 0.00 | 0.00 | 0.00 | 49 | 1019.1 |
| 20260510201513 | 60 | 344 | 0.0 | 4.0 | 0.00 | 0.00 | 0.00 | 44 | 1017.0 |
| 20260510201100 | 60 | 40 | 4.0 | 8.0 | 0.00 | 0.00 | 0.00 | 46 | 1019.2 |
| 20260510201016 | 60 | 19 | 0.0 | 2.0 | 0.00 | 0.00 | 0.00 | 45 | 1017.0 |
| 20260510200601 | 60 | 49 | 4.0 | 10.0 | 0.00 | 0.00 | 0.00 | 42 | 1019.2 |
| 20260510200513 | 60 | 5 | 0.0 | 4.0 | 0.00 | 0.00 | 0.00 | 47 | 1017.1 |
| 20260510200100 | 60 | 113 | 4.0 | 10.0 | 0.00 | 0.00 | 0.00 | 49 | 1019.4 |
| 20260510200015 | 60 | 35 | 0.0 | 4.0 | 0.00 | 0.00 | 0.00 | 44 | 1017.1 |
| 20260510195600 | 60 | 17 | 3.0 | 9.0 | 0.00 | 0.00 | 0.00 | 49 | 1019.4 |
| 20260510195513 | 60 | 10 | 0.0 | 2.0 | 0.00 | 0.00 | 0.00 | 48 | 1017.2 |
| 20260510195101 | 60 | 11 | 5.0 | 9.0 | 0.00 | 0.00 | 0.00 | 46 | 1019.4 |
| 20260510195012 | 60 | 42 | 0.0 | 2.0 | 0.00 | 0.00 | 0.00 | 46 | 1017.2 |
| 20260510194618 | 60 | 105 | 4.0 | 10.0 | 0.00 | 0.00 | 0.00 | 48 | 1019.4 |
| 20260510194512 | 60 | 96 | 0.0 | 1.0 | 0.00 | 0.00 | 0.00 | 49 | 1017.1 |
| 20260510194103 | 60 | 85 | 5.0 | 10.0 | 0.00 | 0.00 | 0.00 | 43 | 1019.3 |
| 20260510194016 | 60 | 17 | 0.0 | 5.0 | 0.00 | 0.00 | 0.00 | 44 | 1017.0 |
| 20260510193602 | 60 | 88 | 4.0 | 9.0 | 0.00 | 0.00 | 0.00 | 52 | 1019.4 |
| 20260510193512 | 60 | 67 | 0.0 | 5.0 | 0.00 | 0.00 | 0.00 | 53 | 1017.1 |
| 20260510193100 | 59 | 34 | 5.0 | 10.0 | 0.00 | 0.00 | 0.00 | 48 | 1019.3 |
| 20260510193013 | 58 | 13 | 0.0 | 3.0 | 0.00 | 0.00 | 0.00 | 49 | 1017.1 |
| 20260510192601 | 57 | 28 | 5.0 | 10.0 | 0.00 | 0.00 | 0.00 | 49 | 1019.5 |
| 20260510192515 | 57 | 65 | 0.0 | 4.0 | 0.00 | 0.00 | 0.00 | 48 | 1017.1 |
| 20260510192101 | 58 | 34 | 4.0 | 8.0 | 0.00 | 0.00 | 0.00 | 48 | 1019.5 |
| 20260510192011 | 58 | 49 | 0.0 | 4.0 | 0.00 | 0.00 | 0.00 | 47 | 1017.1 |
| 20260510191619 | 59 | 34 | 4.0 | 10.0 | 0.00 | 0.00 | 0.00 | 43 | 1019.4 |
| 20260510191511 | 59 | 15 | 0.0 | 4.0 | 0.00 | 0.00 | 0.00 | 50 | 1017.1 |
| 20260510191101 | 58 | 9 | 5.0 | 10.0 | 0.00 | 0.00 | 0.00 | 51 | 1019.5 |
| 20260510191011 | 58 | 55 | 0.0 | 3.0 | 0.00 | 0.00 | 0.00 | 51 | 1017.2 |
| 20260510190604 | 58 | 42 | 4.0 | 9.0 | 0.00 | 0.00 | 0.00 | 47 | 1019.5 |
| 20260510190510 | 58 | 11 | 0.0 | 4.0 | 0.00 | 0.00 | 0.00 | 48 | 1017.1 |
| 20260510190108 | 59 | 28 | 4.0 | 10.0 | 0.00 | 0.00 | 0.00 | 50 | 1019.5 |
| 20260510190016 | 59 | 35 | 0.0 | 4.0 | 0.00 | 0.00 | 0.00 | 46 | 1017.2 |
| 20260510185601 | 59 | 59 | 4.0 | 10.0 | 0.00 | 0.00 | 0.00 | 54 | 1019.4 |
| 20260510185510 | 59 | 53 | 0.0 | 4.0 | 0.00 | 0.00 | 0.00 | 49 | 1017.1 |
| 20260510185102 | 59 | 34 | 4.0 | 9.0 | 0.00 | 0.00 | 0.00 | 47 | 1019.5 |
| 20260510185019 | 59 | 62 | 0.0 | 2.0 | 0.00 | 0.00 | 0.00 | 49 | 1017.2 |
| 20260510184602 | 58 | 32 | 4.0 | 8.0 | 0.00 | 0.00 | 0.00 | 51 | 1019.5 |
| 20260510184508 | 58 | 18 | 0.0 | 2.0 | 0.00 | 0.00 | 0.00 | 49 | 1017.3 |
| 20260510184100 | 58 | 75 | 3.0 | 10.0 | 0.00 | 0.00 | 0.00 | 48 | 1019.5 |
| 20260510184008 | 58 | 42 | 0.0 | 3.0 | 0.00 | 0.00 | 0.00 | 51 | 1017.3 |
| 20260510183601 | 58 | 69 | 5.0 | 10.0 | 0.00 | 0.00 | 0.00 | 51 | 1019.5 |
| 20260510183509 | 58 | 55 | 0.0 | 3.0 | 0.00 | 0.00 | 0.00 | 51 | 1017.2 |
| 20260510183106 | 58 | 32 | 4.0 | 9.0 | 0.00 | 0.00 | 0.00 | 54 | 1019.4 |
| 20260510183008 | 58 | 44 | 0.0 | 2.0 | 0.00 | 0.00 | 0.00 | 52 | 1017.2 |
| 20260510182604 | 58 | 28 | 4.0 | 10.0 | 0.00 | 0.00 | 0.00 | 50 | 1019.4 |
| 20260510182507 | 58 | 46 | 0.0 | 3.0 | 0.00 | 0.00 | 0.00 | 51 | 1017.1 |
| 20260510182058 | 58 | 24 | 4.0 | 10.0 | 0.00 | 0.00 | 0.00 | 52 | 1019.5 |
| 20260510182009 | 57 | 13 | 0.0 | 2.0 | 0.00 | 0.00 | 0.00 | 46 | 1017.1 |
| 20260510181608 | 58 | 74 | 4.0 | 8.0 | 0.00 | 0.00 | 0.00 | 46 | 1019.4 |
| 20260510181508 | 58 | 71 | 0.0 | 2.0 | 0.00 | 0.00 | 0.00 | 46 | 1017.1 |
| 20260510181148 | 58 | 44 | 4.0 | 8.0 | 0.00 | 0.00 | 0.00 | 49 | 1019.3 |
| 20260510181005 | 58 | 360 | 0.0 | 3.0 | 0.00 | 0.00 | 0.00 | 49 | 1017.0 |
| 20260510180601 | 58 | 39 | 4.0 | 10.0 | 0.00 | 0.00 | 0.00 | 49 | 1019.2 |
| 20260510180509 | 57 | 42 | 0.0 | 3.0 | 0.00 | 0.00 | 0.00 | 43 | 1016.9 |
| 20260510180109 | 57 | 36 | 5.0 | 10.0 | 0.00 | 0.00 | 0.00 | 49 | 1019.2 |
| 20260510180006 | 57 | 74 | 0.0 | 3.0 | 0.00 | 0.00 | 0.00 | 50 | 1016.9 |
| 20260510175605 | 58 | 17 | 3.0 | 9.0 | 0.00 | 0.00 | 0.00 | 52 | 1019.2 |
| 20260510175101 | 57 | 24 | 4.0 | 9.0 | 0.00 | 0.00 | 0.00 | 50 | 1019.2 |
| 20260510175004 | 57 | 38 | 0.0 | 1.0 | 0.00 | 0.00 | 0.00 | 48 | 1016.9 |
| 20260510174608 | 57 | 350 | 3.0 | 8.0 | 0.00 | 0.00 | 0.00 | 49 | 1019.3 |
| 20260510174505 | 57 | 47 | 0.0 | 4.0 | 0.00 | 0.00 | 0.00 | 49 | 1016.9 |
| 20260510174101 | 57 | 9 | 3.0 | 8.0 | 0.00 | 0.00 | 0.00 | 43 | 1019.2 |
| 20260510174004 | 57 | 49 | 0.0 | 4.0 | 0.00 | 0.00 | 0.00 | 47 | 1016.9 |
| 20260510173600 | 57 | 37 | 4.0 | 9.0 | 0.00 | 0.00 | 0.00 | 46 | 1019.3 |
| 20260510173503 | 57 | 61 | 0.0 | 2.0 | 0.00 | 0.00 | 0.00 | 42 | 1016.9 |
| 20260510173101 | 58 | 38 | 4.0 | 9.0 | 0.00 | 0.00 | 0.00 | 50 | 1019.2 |
| 20260510173004 | 58 | 69 | 0.0 | 3.0 | 0.00 | 0.00 | 0.00 | 52 | 1017.0 |
| 20260510172601 | 57 | 74 | 4.0 | 9.0 | 0.00 | 0.00 | 0.00 | 46 | 1019.2 |
| 20260510172504 | 57 | 22 | 0.0 | 2.0 | 0.00 | 0.00 | 0.00 | 49 | 1016.9 |
| 20260510172100 | 57 | 29 | 4.0 | 9.0 | 0.00 | 0.00 | 0.00 | 45 | 1019.2 |
| 20260510172003 | 57 | 63 | 0.0 | 2.0 | 0.00 | 0.00 | 0.00 | 51 | 1017.0 |
| 20260510171559 | 57 | 50 | 4.0 | 9.0 | 0.00 | 0.00 | 0.00 | 46 | 1019.3 |
| 20260510171506 | 57 | 36 | 0.0 | 3.0 | 0.00 | 0.00 | 0.00 | 51 | 1017.1 |
| 20260510171100 | 57 | 71 | 3.0 | 8.0 | 0.00 | 0.00 | 0.00 | 52 | 1019.4 |
| 20260510171006 | 57 | 81 | 0.0 | 2.0 | 0.00 | 0.00 | 0.00 | 51 | 1017.1 |
| 20260510170600 | 57 | 51 | 4.0 | 8.0 | 0.00 | 0.00 | 0.00 | 46 | 1019.4 |
| 20260510170503 | 57 | 41 | 0.0 | 2.0 | 0.00 | 0.00 | 0.00 | 54 | 1017.2 |
| 20260510170115 | 56 | 323 | 3.0 | 8.0 | 0.00 | 0.00 | 0.00 | 45 | 1019.4 |
| 20260510170100 | 56 | 21 | 0.0 | 2.0 | 0.00 | 0.00 | 0.00 | 46 | 1017.1 |
| 20260510165601 | 56 | 20 | 0.0 | 2.0 | 0.00 | 0.00 | 0.00 | 54 | 1017.2 |
| 20260510165105 | 57 | 28 | 3.0 | 8.0 | 0.00 | 0.00 | 0.00 | 54 | 1019.5 |
| 20260510165059 | 57 | 19 | 0.0 | 2.0 | 0.00 | 0.00 | 0.00 | 55 | 1017.2 |
| 20260510164625 | 57 | 9 | 4.0 | 8.0 | 0.00 | 0.00 | 0.00 | 60 | 1019.4 |
| 20260510164559 | 57 | 60 | 0.0 | 2.0 | 0.00 | 0.00 | 0.00 | 60 | 1017.1 |
| 20260510164100 | 56 | 32 | 2.0 | 9.0 | 0.00 | 0.00 | 0.00 | 64 | 1019.4 |
| 20260510164057 | 56 | 34 | 0.0 | 3.0 | 0.00 | 0.00 | 0.00 | 65 | 1017.2 |
| 20260510163601 | 56 | 10 | 4.0 | 9.0 | 0.00 | 0.00 | 0.00 | 62 | 1019.5 |
| 20260510163556 | 56 | 50 | 0.0 | 3.0 | 0.00 | 0.00 | 0.00 | 63 | 1017.2 |
| 20260510163107 | 56 | 11 | 4.0 | 8.0 | 0.00 | 0.00 | 0.00 | 59 | 1019.3 |
| 20260510163100 | 56 | 355 | 0.0 | 1.0 | 0.00 | 0.00 | 0.00 | 59 | 1017.1 |
| 20260510162603 | 55 | 355 | 0.0 | 1.0 | 0.00 | 0.00 | 0.00 | 61 | 1017.0 |
| 20260510162601 | 55 | 5 | 3.0 | 8.0 | 0.00 | 0.00 | 0.00 | 60 | 1019.3 |
| 20260510162100 | 56 | 22 | 3.0 | 8.0 | 0.00 | 0.00 | 0.00 | 66 | 1019.2 |
| 20260510162051 | 56 | 355 | 0.0 | 2.0 | 0.00 | 0.00 | 0.00 | 66 | 1017.0 |
| 20260510161601 | 56 | 42 | 4.0 | 7.0 | 0.00 | 0.00 | 0.00 | 67 | 1019.2 |
| 20260510161551 | 56 | 355 | 0.0 | 2.0 | 0.00 | 0.00 | 0.00 | 67 | 1017.0 |
| 20260510161101 | 55 | 57 | 3.0 | 8.0 | 0.00 | 0.00 | 0.00 | 70 | 1019.1 |
| 20260510161058 | 55 | 355 | 0.0 | 1.0 | 0.00 | 0.00 | 0.00 | 70 | 1017.0 |
| 20260510160601 | 55 | 51 | 3.0 | 9.0 | 0.00 | 0.00 | 0.00 | 66 | 1019.1 |
| 20260510160548 | 55 | 355 | 0.0 | 2.0 | 0.00 | 0.00 | 0.00 | 67 | 1016.9 |
| 20260510160127 | 55 | 38 | 4.0 | 9.0 | 0.00 | 0.00 | 0.00 | 69 | 1018.9 |
| 20260510160046 | 55 | 5 | 0.0 | 1.0 | 0.00 | 0.00 | 0.00 | 69 | 1016.8 |
| 20260510155559 | 55 | 28 | 3.0 | 9.0 | 0.00 | 0.00 | 0.00 | 68 | 1018.9 |
| 20260510155545 | 55 | 355 | 0.0 | 2.0 | 0.00 | 0.00 | 0.00 | 69 | 1016.7 |
| 20260510155101 | 55 | 352 | 4.0 | 8.0 | 0.00 | 0.00 | 0.00 | 66 | 1018.8 |
| 20260510155044 | 55 | 355 | 0.0 | 1.0 | 0.00 | 0.00 | 0.00 | 67 | 1016.7 |
| 20260510154609 | 55 | 13 | 4.0 | 8.0 | 0.00 | 0.00 | 0.00 | 68 | 1018.8 |
| 20260510154542 | 55 | 5 | 0.0 | 2.0 | 0.00 | 0.00 | 0.00 | 69 | 1016.6 |
| 20260510154100 | 56 | 19 | 4.0 | 8.0 | 0.00 | 0.00 | 0.00 | 68 | 1018.7 |
| 20260510154046 | 56 | 5 | 0.0 | 2.0 | 0.00 | 0.00 | 0.00 | 69 | 1016.5 |
| 20260510153600 | 54 | 71 | 4.0 | 8.0 | 0.00 | 0.00 | 0.00 | 68 | 1018.7 |
| 20260510153540 | 54 | 23 | 0.0 | 2.0 | 0.00 | 0.00 | 0.00 | 68 | 1016.6 |
| 20260510153101 | 55 | 11 | 3.0 | 8.0 | 0.00 | 0.00 | 0.00 | 66 | 1018.7 |
| 20260510153044 | 55 | 355 | 0.0 | 2.0 | 0.00 | 0.00 | 0.00 | 68 | 1016.6 |
| 20260510152600 | 55 | 350 | 4.0 | 10.0 | 0.00 | 0.00 | 0.00 | 68 | 1018.7 |
| 20260510152538 | 55 | 355 | 0.0 | 1.0 | 0.00 | 0.00 | 0.00 | 68 | 1016.6 |
| 20260510152104 | 55 | 340 | 5.0 | 10.0 | 0.00 | 0.00 | 0.00 | 67 | 1018.6 |
| 20260510152036 | 55 | 348 | 0.0 | 1.0 | 0.00 | 0.00 | 0.00 | 67 | 1016.6 |
| 20260510151613 | 55 | 360 | 4.0 | 9.0 | 0.00 | 0.00 | 0.00 | 68 | 1018.7 |
| 20260510151535 | 55 | 19 | 0.0 | 2.0 | 0.00 | 0.00 | 0.00 | 68 | 1016.6 |
| 20260510151058 | 55 | 26 | 5.0 | 9.0 | 0.00 | 0.00 | 0.00 | 69 | 1018.6 |
| 20260510151034 | 55 | 26 | 0.0 | 2.0 | 0.00 | 0.00 | 0.00 | 69 | 1016.4 |
| 20260510150602 | 55 | 13 | 4.0 | 9.0 | 0.00 | 0.00 | 0.00 | 68 | 1018.5 |
| 20260510150533 | 55 | 11 | 0.0 | 3.0 | 0.00 | 0.00 | 0.00 | 70 | 1016.4 |
| 20260510150032 | 55 | 350 | 0.0 | 3.0 | 0.00 | 0.00 | 0.00 | 67 | 1016.3 |
| 20260510145600 | 55 | 5 | 5.0 | 9.0 | 0.00 | 0.00 | 0.00 | 67 | 1018.3 |
| 20260510145530 | 55 | 350 | 0.0 | 3.0 | 0.00 | 0.00 | 0.00 | 69 | 1016.2 |
| 20260510145058 | 55 | 19 | 4.0 | 9.0 | 0.00 | 0.00 | 0.00 | 70 | 1018.4 |
| 20260510145029 | 55 | 53 | 0.0 | 1.0 | 0.00 | 0.00 | 0.00 | 68 | 1016.1 |
| 20260510144619 | 55 | 37 | 4.0 | 9.0 | 0.00 | 0.00 | 0.00 | 66 | 1018.3 |
| 20260510144532 | 55 | 33 | 0.0 | 2.0 | 0.00 | 0.00 | 0.00 | 67 | 1016.2 |
| 20260510144144 | 55 | 26 | 0.0 | 4.0 | 0.00 | 0.00 | 0.00 | 69 | 1016.1 |
| 20260510144100 | 55 | 52 | 6.0 | 10.0 | 0.00 | 0.00 | 0.00 | 69 | 1018.2 |
| 20260510143600 | 55 | 57 | 6.0 | 10.0 | 0.00 | 0.00 | 0.00 | 68 | 1018.3 |
| 20260510143527 | 55 | 24 | 0.0 | 4.0 | 0.00 | 0.00 | 0.00 | 69 | 1016.0 |
| 20260510143100 | 54 | 24 | 4.0 | 10.0 | 0.00 | 0.00 | 0.00 | 67 | 1018.1 |
| 20260510143022 | 55 | 344 | 0.0 | 2.0 | 0.00 | 0.00 | 0.00 | 68 | 1015.9 |
| 20260510142601 | 55 | 28 | 5.0 | 10.0 | 0.00 | 0.00 | 0.00 | 67 | 1018.2 |
| 20260510142521 | 55 | 5 | 0.0 | 2.0 | 0.00 | 0.00 | 0.00 | 67 | 1016.0 |
| 20260510142100 | 55 | 28 | 4.0 | 11.0 | 0.00 | 0.00 | 0.00 | 68 | 1018.1 |
| 20260510142020 | 55 | 52 | 0.0 | 2.0 | 0.00 | 0.00 | 0.00 | 68 | 1016.0 |
| 20260510141600 | 55 | 39 | 5.0 | 11.0 | 0.00 | 0.00 | 0.00 | 66 | 1018.1 |
| 20260510141519 | 55 | 15 | 0.0 | 2.0 | 0.00 | 0.00 | 0.00 | 67 | 1015.9 |
| 20260510141100 | 55 | 44 | 7.0 | 11.0 | 0.00 | 0.00 | 0.00 | 68 | 1018.1 |
| 20260510141019 | 55 | 19 | 0.0 | 2.0 | 0.00 | 0.00 | 0.00 | 68 | 1015.8 |
| 20260510140601 | 55 | 51 | 6.0 | 10.0 | 0.00 | 0.00 | 0.00 | 67 | 1018.1 |
| 20260510140516 | 55 | 38 | 0.0 | 2.0 | 0.00 | 0.00 | 0.00 | 69 | 1015.8 |
| 20260510140059 | 54 | 31 | 7.0 | 11.0 | 0.00 | 0.00 | 0.00 | 67 | 1018.1 |
| 20260510140015 | 54 | 5 | 0.0 | 2.0 | 0.00 | 0.00 | 0.00 | 68 | 1015.8 |
| 20260510135600 | 54 | 27 | 6.0 | 12.0 | 0.00 | 0.00 | 0.00 | 67 | 1018.1 |
| 20260510135514 | 54 | 360 | 0.0 | 3.0 | 0.00 | 0.00 | 0.00 | 68 | 1015.8 |
| 20260510135100 | 54 | 42 | 8.0 | 12.0 | 0.00 | 0.00 | 0.00 | 67 | 1018.0 |
| 20260510135012 | 54 | 350 | 0.0 | 3.0 | 0.00 | 0.00 | 0.00 | 68 | 1015.8 |
| 20260510134600 | 54 | 32 | 8.0 | 12.0 | 0.00 | 0.00 | 0.00 | 67 | 1018.1 |
| 20260510134511 | 54 | 360 | 0.0 | 2.0 | 0.00 | 0.00 | 0.00 | 69 | 1015.8 |
| 20260510134100 | 54 | 27 | 6.0 | 12.0 | 0.00 | 0.00 | 0.00 | 69 | 1018.0 |
| 20260510134008 | 54 | 19 | 0.0 | 2.0 | 0.00 | 0.00 | 0.00 | 69 | 1015.9 |
| 20260510133600 | 54 | 22 | 7.0 | 12.0 | 0.00 | 0.00 | 0.00 | 68 | 1018.0 |
| 20260510133507 | 54 | 351 | 0.0 | 2.0 | 0.00 | 0.00 | 0.00 | 70 | 1015.8 |
| 20260510133100 | 54 | 342 | 7.0 | 11.0 | 0.00 | 0.00 | 0.00 | 68 | 1017.9 |
| 20260510133006 | 54 | 28 | 0.0 | 3.0 | 0.00 | 0.00 | 0.00 | 67 | 1015.7 |
| 20260510132600 | 54 | 24 | 7.0 | 13.0 | 0.00 | 0.00 | 0.00 | 67 | 1017.9 |
| 20260510132504 | 54 | 346 | 0.0 | 3.0 | 0.00 | 0.00 | 0.00 | 68 | 1015.7 |
| 20260510132110 | 54 | 355 | 0.0 | 3.0 | 0.00 | 0.00 | 0.00 | 69 | 1015.7 |
| 20260510132100 | 54 | 31 | 8.0 | 13.0 | 0.00 | 0.00 | 0.00 | 69 | 1017.8 |
| 20260510131559 | 53 | 24 | 8.0 | 12.0 | 0.00 | 0.00 | 0.00 | 68 | 1017.6 |
| 20260510131502 | 53 | 348 | 0.0 | 3.0 | 0.00 | 0.00 | 0.00 | 68 | 1015.6 |
| 20260510131100 | 53 | 355 | 0.0 | 3.0 | 0.00 | 0.00 | 0.00 | 68 | 1015.5 |
| 20260510130603 | 53 | 10 | 5.0 | 9.0 | 0.00 | 0.00 | 0.00 | 69 | 1017.5 |
| 20260510130559 | 53 | 24 | 0.0 | 3.0 | 0.00 | 0.00 | 0.00 | 69 | 1015.4 |
| 20260510130101 | 52 | 34 | 0.0 | 1.0 | 0.00 | 0.00 | 0.00 | 68 | 1015.3 |
| 20260510125603 | 53 | 22 | 5.0 | 10.0 | 0.00 | 0.00 | 0.00 | 67 | 1017.2 |
| 20260510125558 | 53 | 49 | 0.0 | 1.0 | 0.00 | 0.00 | 0.00 | 67 | 1015.2 |
| 20260510125100 | 52 | 24 | 6.0 | 11.0 | 0.00 | 0.00 | 0.00 | 67 | 1017.3 |
| 20260510125058 | 52 | 9 | 0.0 | 1.0 | 0.00 | 0.00 | 0.00 | 67 | 1015.2 |
| 20260510124612 | 52 | 31 | 5.0 | 12.0 | 0.00 | 0.00 | 0.00 | 66 | 1017.2 |
| 20260510124559 | 52 | 9 | 0.0 | 1.0 | 0.00 | 0.00 | 0.00 | 67 | 1015.2 |
| 20260510124100 | 52 | 43 | 6.0 | 14.0 | 0.00 | 0.00 | 0.00 | 68 | 1017.2 |
| 20260510124056 | 52 | 355 | 0.0 | 4.0 | 0.00 | 0.00 | 0.00 | 69 | 1015.2 |
| 20260510123601 | 52 | 16 | 9.0 | 14.0 | 0.00 | 0.00 | 0.00 | 67 | 1017.1 |
| 20260510123555 | 52 | 5 | 0.0 | 4.0 | 0.00 | 0.00 | 0.00 | 67 | 1015.1 |
| 20260510123059 | 52 | 29 | 9.0 | 15.0 | 0.00 | 0.00 | 0.00 | 68 | 1017.1 |
| 20260510123053 | 52 | 336 | 1.0 | 5.0 | 0.00 | 0.00 | 0.00 | 69 | 1014.8 |
| 20260510122604 | 51 | 40 | 10.0 | 15.0 | 0.00 | 0.00 | 0.00 | 68 | 1017.0 |
| 20260510122551 | 51 | 24 | 0.0 | 5.0 | 0.00 | 0.00 | 0.00 | 69 | 1014.9 |
| 20260510122100 | 52 | 11 | 9.0 | 14.0 | 0.00 | 0.00 | 0.00 | 68 | 1016.9 |
| 20260510122051 | 52 | 9 | 1.0 | 4.0 | 0.00 | 0.00 | 0.00 | 68 | 1014.8 |
| 20260510121601 | 52 | 15 | 8.0 | 14.0 | 0.00 | 0.00 | 0.00 | 68 | 1016.8 |
| 20260510121550 | 52 | 360 | 0.0 | 4.0 | 0.00 | 0.00 | 0.00 | 69 | 1014.7 |
| 20260510121513 | 52 | 355 | 0.0 | 4.0 | 0.00 | 0.00 | 0.00 | 69 | 1014.7 |
| 20260510121100 | 52 | 14 | 8.0 | 15.0 | 0.00 | 0.00 | 0.00 | 67 | 1016.8 |
| 20260510121057 | 52 | 355 | 0.0 | 4.0 | 0.00 | 0.00 | 0.00 | 68 | 1014.8 |
| 20260510120600 | 52 | 25 | 10.0 | 17.0 | 0.00 | 0.00 | 0.00 | 68 | 1016.6 |
| 20260510120547 | 52 | 5 | 0.0 | 4.0 | 0.00 | 0.00 | 0.00 | 68 | 1014.6 |
| 20260510120105 | 52 | 15 | 10.0 | 17.0 | 0.00 | 0.00 | 0.00 | 67 | 1016.5 |
| 20260510120046 | 52 | 341 | 1.0 | 4.0 | 0.00 | 0.00 | 0.00 | 68 | 1014.6 |
| 20260510115603 | 52 | 24 | 10.0 | 16.0 | 0.00 | 0.00 | 0.00 | 68 | 1016.5 |
| 20260510115544 | 52 | 5 | 0.0 | 3.0 | 0.00 | 0.00 | 0.00 | 69 | 1014.6 |
| 20260510115100 | 51 | 32 | 11.0 | 16.0 | 0.00 | 0.00 | 0.00 | 68 | 1016.3 |
| 20260510115043 | 51 | 348 | 0.0 | 3.0 | 0.00 | 0.00 | 0.00 | 69 | 1014.4 |
| 20260510114600 | 51 | 9 | 10.0 | 16.0 | 0.00 | 0.00 | 0.00 | 68 | 1016.2 |
| 20260510114542 | 51 | 5 | 0.0 | 7.0 | 0.00 | 0.00 | 0.00 | 68 | 1014.2 |
| 20260510114100 | 51 | 38 | 10.0 | 16.0 | 0.00 | 0.00 | 0.00 | 68 | 1016.2 |
| 20260510114041 | 51 | 17 | 0.0 | 7.0 | 0.00 | 0.00 | 0.00 | 68 | 1014.1 |
| 20260510113630 | 51 | 28 | 10.0 | 17.0 | 0.00 | 0.00 | 0.00 | 69 | 1016.0 |
| 20260510113540 | 51 | 20 | 0.0 | 4.0 | 0.00 | 0.00 | 0.00 | 70 | 1014.1 |
| 20260510113105 | 51 | 41 | 9.0 | 18.0 | 0.00 | 0.00 | 0.00 | 68 | 1016.0 |
| 20260510113043 | 51 | 5 | 0.0 | 4.0 | 0.00 | 0.00 | 0.00 | 69 | 1014.1 |
| 20260510112600 | 50 | 44 | 12.0 | 18.0 | 0.00 | 0.00 | 0.00 | 68 | 1015.9 |
| 20260510112538 | 50 | 28 | 0.0 | 9.0 | 0.00 | 0.00 | 0.00 | 69 | 1013.9 |
| 20260510112101 | 50 | 30 | 9.0 | 16.0 | 0.00 | 0.00 | 0.00 | 72 | 1015.7 |
| 20260510112040 | 50 | 355 | 0.0 | 9.0 | 0.00 | 0.00 | 0.00 | 72 | 1013.8 |
| 20260510111600 | 50 | 41 | 9.0 | 19.0 | 0.00 | 0.00 | 0.00 | 73 | 1015.6 |
| 20260510111536 | 50 | 355 | 0.0 | 2.0 | 0.00 | 0.00 | 0.00 | 73 | 1013.6 |
| 20260510111100 | 50 | 56 | 12.0 | 19.0 | 0.00 | 0.00 | 0.00 | 71 | 1015.6 |
| 20260510111034 | 50 | 9 | 0.0 | 2.0 | 0.00 | 0.00 | 0.00 | 72 | 1013.6 |
| 20260510110604 | 50 | 9 | 12.0 | 18.0 | 0.00 | 0.00 | 0.00 | 72 | 1015.5 |
| 20260510110536 | 50 | 9 | 0.0 | 2.0 | 0.00 | 0.00 | 0.00 | 72 | 1013.5 |
| 20260510110059 | 50 | 17 | 10.0 | 18.0 | 0.00 | 0.00 | 0.00 | 73 | 1015.4 |
| 20260510110036 | 50 | 355 | 0.0 | 5.0 | 0.00 | 0.00 | 0.00 | 73 | 1013.3 |
| 20260510105602 | 50 | 34 | 10.0 | 17.0 | 0.00 | 0.00 | 0.00 | 72 | 1015.1 |
| 20260510105533 | 50 | 10 | 0.0 | 5.0 | 0.00 | 0.00 | 0.00 | 73 | 1013.3 |
| 20260510105100 | 50 | 32 | 12.0 | 17.0 | 0.00 | 0.00 | 0.00 | 71 | 1015.1 |
| 20260510105035 | 50 | 31 | 0.0 | 3.0 | 0.00 | 0.00 | 0.00 | 72 | 1013.2 |
| 20260510104605 | 50 | 13 | 12.0 | 18.0 | 0.00 | 0.00 | 0.00 | 72 | 1015.0 |
| 20260510104100 | 50 | 39 | 11.0 | 18.0 | 0.00 | 0.00 | 0.00 | 72 | 1015.0 |
| 20260510104030 | 50 | 5 | 0.0 | 2.0 | 0.00 | 0.00 | 0.00 | 72 | 1013.1 |
| 20260510103600 | 50 | 22 | 11.0 | 19.0 | 0.00 | 0.00 | 0.00 | 72 | 1014.7 |
| 20260510103527 | 50 | 10 | 0.0 | 6.0 | 0.00 | 0.00 | 0.00 | 73 | 1012.9 |
| 20260510103059 | 50 | 50 | 10.0 | 19.0 | 0.00 | 0.00 | 0.00 | 73 | 1014.6 |
| 20260510103026 | 50 | 17 | 0.0 | 6.0 | 0.00 | 0.00 | 0.00 | 74 | 1012.7 |
| 20260510102559 | 51 | 24 | 11.0 | 18.0 | 0.00 | 0.00 | 0.00 | 74 | 1014.6 |
| 20260510102525 | 51 | 12 | 0.0 | 6.0 | 0.00 | 0.00 | 0.00 | 74 | 1012.5 |
| 20260510102100 | 51 | 27 | 11.0 | 20.0 | 0.00 | 0.00 | 0.00 | 74 | 1014.4 |
| 20260510102026 | 51 | 40 | 0.0 | 5.0 | 0.00 | 0.00 | 0.00 | 75 | 1012.6 |
| 20260510101602 | 51 | 35 | 13.0 | 20.0 | 0.00 | 0.00 | 0.00 | 75 | 1014.4 |
| 20260510101523 | 51 | 355 | 1.0 | 4.0 | 0.00 | 0.00 | 0.00 | 76 | 1012.4 |
| 20260510101058 | 51 | 46 | 13.0 | 19.0 | 0.00 | 0.00 | 0.00 | 76 | 1014.3 |
| 20260510101021 | 51 | 355 | 1.0 | 3.0 | 0.00 | 0.00 | 0.00 | 77 | 1012.2 |
| 20260510100602 | 52 | 26 | 11.0 | 17.0 | 0.00 | 0.00 | 0.00 | 76 | 1014.1 |
| 20260510100520 | 52 | 11 | 1.0 | 4.0 | 0.00 | 0.00 | 0.00 | 77 | 1012.1 |
| 20260510100058 | 52 | 17 | 10.0 | 15.0 | 0.00 | 0.00 | 0.00 | 76 | 1014.0 |
| 20260510100020 | 52 | 12 | 0.0 | 2.0 | 0.00 | 0.00 | 0.00 | 77 | 1012.1 |
| 20260510095600 | 52 | 24 | 10.0 | 15.0 | 0.00 | 0.00 | 0.00 | 76 | 1014.1 |
| 20260510095520 | 52 | 5 | 0.0 | 2.0 | 0.00 | 0.00 | 0.00 | 77 | 1012.1 |
| 20260510095101 | 52 | 37 | 9.0 | 14.0 | 0.00 | 0.00 | 0.00 | 75 | 1013.9 |
| 20260510095019 | 52 | 17 | 0.0 | 2.0 | 0.00 | 0.00 | 0.00 | 76 | 1011.9 |
| 20260510094613 | 52 | 36 | 8.0 | 14.0 | 0.00 | 0.00 | 0.00 | 74 | 1013.8 |
| 20260510094525 | 52 | 21 | 0.0 | 2.0 | 0.00 | 0.00 | 0.00 | 74 | 1011.8 |
| 20260510094058 | 52 | 37 | 7.0 | 14.0 | 0.00 | 0.00 | 0.00 | 70 | 1013.8 |
| 20260510094016 | 52 | 44 | 0.0 | 2.0 | 0.00 | 0.00 | 0.00 | 71 | 1011.7 |
| 20260510093558 | 53 | 47 | 7.0 | 13.0 | 0.00 | 0.00 | 0.00 | 69 | 1013.6 |
| 20260510093516 | 53 | 22 | 0.0 | 1.0 | 0.00 | 0.00 | 0.00 | 70 | 1011.6 |
| 20260510093119 | 53 | 42 | 7.0 | 11.0 | 0.00 | 0.00 | 0.00 | 71 | 1013.5 |
| 20260510093017 | 53 | 5 | 0.0 | 0.0 | 0.00 | 0.00 | 0.00 | 72 | 1011.6 |
| 20260510092558 | 53 | 72 | 6.0 | 11.0 | 0.00 | 0.00 | 0.00 | 71 | 1013.5 |
| 20260510092514 | 53 | 46 | 0.0 | 1.0 | 0.00 | 0.00 | 0.00 | 71 | 1011.3 |
| 20260510092100 | 53 | 45 | 5.0 | 10.0 | 0.00 | 0.00 | 0.00 | 71 | 1013.4 |
| 20260510092012 | 53 | 24 | 0.0 | 0.0 | 0.00 | 0.00 | 0.00 | 72 | 1011.3 |
| 20260510091601 | 53 | 38 | 5.0 | 10.0 | 0.00 | 0.00 | 0.00 | 70 | 1013.5 |
| 20260510091512 | 53 | 50 | 0.0 | 0.0 | 0.00 | 0.00 | 0.00 | 71 | 1011.4 |
| 20260510091058 | 53 | 50 | 8.0 | 10.0 | 0.00 | 0.00 | 0.00 | 71 | 1013.4 |
| 20260510091012 | 53 | 46 | 0.0 | 1.0 | 0.00 | 0.00 | 0.00 | 71 | 1011.3 |
| 20260510090605 | 53 | 38 | 5.0 | 10.0 | 0.00 | 0.00 | 0.00 | 70 | 1013.4 |
| 20260510090512 | 53 | 51 | 0.0 | 0.0 | 0.00 | 0.00 | 0.00 | 70 | 1011.3 |
| 20260510090100 | 53 | 63 | 6.0 | 10.0 | 0.00 | 0.00 | 0.00 | 70 | 1013.2 |
| 20260510090016 | 53 | 54 | 0.0 | 0.0 | 0.00 | 0.00 | 0.00 | 71 | 1010.9 |
| 20260510085600 | 53 | 29 | 3.0 | 6.0 | 0.00 | 0.00 | 0.00 | 71 | 1013.1 |
| 20260510085510 | 53 | 49 | 0.0 | 0.0 | 0.00 | 0.00 | 0.00 | 71 | 1010.9 |
| 20260510085100 | 53 | 32 | 4.0 | 6.0 | 0.00 | 0.00 | 0.00 | 71 | 1013.1 |
| 20260510085011 | 53 | 61 | 0.0 | 0.0 | 0.00 | 0.00 | 0.00 | 71 | 1010.8 |
| 20260510084601 | 53 | 67 | 1.0 | 6.0 | 0.00 | 0.00 | 0.00 | 71 | 1013.0 |
| 20260510084507 | 53 | 61 | 0.0 | 0.0 | 0.00 | 0.00 | 0.00 | 71 | 1010.8 |
| 20260510084100 | 54 | 34 | 3.0 | 6.0 | 0.00 | 0.00 | 0.00 | 70 | 1013.0 |
| 20260510084007 | 54 | 61 | 0.0 | 0.0 | 0.00 | 0.00 | 0.00 | 71 | 1010.8 |
| 20260510083558 | 54 | 24 | 3.0 | 6.0 | 0.00 | 0.00 | 0.00 | 70 | 1012.8 |
| 20260510083507 | 54 | 61 | 0.0 | 0.0 | 0.00 | 0.00 | 0.00 | 70 | 1010.7 |
| 20260510083116 | 54 | 61 | 0.0 | 0.0 | 0.00 | 0.00 | 0.00 | 70 | 1010.8 |
| 20260510083101 | 54 | 37 | 3.0 | 6.0 | 0.00 | 0.00 | 0.00 | 70 | 1012.8 |
| 20260510082604 | 53 | 45 | 3.0 | 6.0 | 0.00 | 0.00 | 0.00 | 70 | 1012.7 |
| 20260510082506 | 54 | 61 | 0.0 | 0.0 | 0.00 | 0.00 | 0.00 | 70 | 1010.6 |
| 20260510082100 | 54 | 40 | 3.0 | 9.0 | 0.00 | 0.00 | 0.00 | 70 | 1012.7 |
| 20260510082004 | 54 | 49 | 0.0 | 0.0 | 0.00 | 0.00 | 0.00 | 70 | 1010.6 |
| 20260510081600 | 54 | 26 | 2.0 | 9.0 | 0.00 | 0.00 | 0.00 | 69 | 1012.7 |
| 20260510081506 | 54 | 49 | 0.0 | 0.0 | 0.00 | 0.00 | 0.00 | 70 | 1010.7 |
| 20260510081103 | 54 | 40 | 4.0 | 9.0 | 0.00 | 0.00 | 0.00 | 69 | 1012.7 |
| 20260510081003 | 54 | 44 | 0.0 | 0.0 | 0.00 | 0.00 | 0.00 | 69 | 1010.6 |
| 20260510080558 | 54 | 44 | 4.0 | 9.0 | 0.00 | 0.00 | 0.00 | 69 | 1012.7 |
| 20260510080503 | 54 | 44 | 0.0 | 0.0 | 0.00 | 0.00 | 0.00 | 69 | 1010.6 |
| 20260510080100 | 54 | 29 | 4.0 | 11.0 | 0.00 | 0.00 | 0.00 | 69 | 1012.7 |
| 20260510080001 | 54 | 38 | 0.0 | 0.0 | 0.00 | 0.00 | 0.00 | 70 | 1010.4 |
| 20260510075601 | 54 | 355 | 0.0 | 0.0 | 0.00 | 0.00 | 0.00 | 70 | 1010.3 |
| 20260510075558 | 54 | 34 | 5.0 | 11.0 | 0.00 | 0.00 | 0.00 | 70 | 1012.4 |
| 20260510075059 | 54 | 355 | 0.0 | 0.0 | 0.00 | 0.00 | 0.00 | 70 | 1010.2 |
| 20260510074559 | 55 | 355 | 0.0 | 0.0 | 0.00 | 0.00 | 0.00 | 68 | 1010.1 |
| 20260510074059 | 55 | 42 | 0.0 | 0.0 | 0.00 | 0.00 | 0.00 | 68 | 1010.1 |
| 20260510073559 | 54 | 22 | 7.0 | 10.0 | 0.00 | 0.00 | 0.00 | 68 | 1012.2 |
| 20260510073058 | 54 | 5 | 6.0 | 11.0 | 0.00 | 0.00 | 0.00 | 70 | 1012.1 |
| 20260510072600 | 54 | 36 | 6.0 | 11.0 | 0.00 | 0.00 | 0.00 | 70 | 1012.1 |
| 20260510072557 | 54 | 43 | 0.0 | 0.0 | 0.00 | 0.00 | 0.00 | 70 | 1009.9 |
| 20260510072059 | 54 | 42 | 5.0 | 11.0 | 0.00 | 0.00 | 0.00 | 71 | 1011.9 |
| 20260510072056 | 54 | 38 | 0.0 | 0.0 | 0.00 | 0.00 | 0.00 | 71 | 1009.8 |
| 20260510071559 | 54 | 24 | 0.0 | 0.0 | 0.00 | 0.00 | 0.00 | 71 | 1009.8 |
| 20260510071059 | 54 | 26 | 6.0 | 11.0 | 0.00 | 0.00 | 0.00 | 71 | 1011.8 |
| 20260510071054 | 54 | 24 | 0.0 | 0.0 | 0.00 | 0.00 | 0.00 | 72 | 1009.8 |
| 20260510070559 | 54 | 51 | 6.0 | 10.0 | 0.00 | 0.00 | 0.00 | 71 | 1011.7 |
| 20260510070554 | 54 | 17 | 0.0 | 1.0 | 0.00 | 0.00 | 0.00 | 72 | 1009.7 |
| 20260510070059 | 54 | 42 | 5.0 | 10.0 | 0.00 | 0.00 | 0.00 | 73 | 1011.6 |
| 20260510070053 | 54 | 13 | 0.0 | 0.0 | 0.00 | 0.00 | 0.00 | 73 | 1009.6 |
| 20260510065603 | 54 | 31 | 6.0 | 11.0 | 0.00 | 0.00 | 0.00 | 72 | 1011.6 |
| 20260510065553 | 54 | 11 | 0.0 | 0.0 | 0.00 | 0.00 | 0.00 | 73 | 1009.4 |
| 20260510065101 | 54 | 43 | 5.0 | 11.0 | 0.00 | 0.00 | 0.00 | 72 | 1011.4 |
| 20260510065053 | 54 | 355 | 0.0 | 4.0 | 0.00 | 0.00 | 0.00 | 73 | 1009.4 |
| 20260510064558 | 54 | 61 | 6.0 | 11.0 | 0.00 | 0.00 | 0.00 | 72 | 1011.6 |
| 20260510064552 | 54 | 74 | 0.0 | 4.0 | 0.00 | 0.00 | 0.00 | 72 | 1009.4 |
| 20260510064059 | 54 | 36 | 5.0 | 11.0 | 0.00 | 0.00 | 0.00 | 74 | 1011.4 |
| 20260510064051 | 54 | 44 | 0.0 | 1.0 | 0.00 | 0.00 | 0.00 | 74 | 1009.4 |
| 20260510063602 | 55 | 32 | 6.0 | 12.0 | 0.00 | 0.00 | 0.00 | 73 | 1011.4 |
| 20260510063551 | 54 | 20 | 0.0 | 1.0 | 0.00 | 0.00 | 0.00 | 74 | 1009.3 |
| 20260510063105 | 54 | 36 | 6.0 | 13.0 | 0.00 | 0.00 | 0.00 | 73 | 1011.3 |
| 20260510063050 | 54 | 18 | 0.0 | 3.0 | 0.00 | 0.00 | 0.00 | 74 | 1009.2 |
| 20260510062603 | 54 | 34 | 7.0 | 13.0 | 0.00 | 0.00 | 0.00 | 73 | 1011.3 |
| 20260510062549 | 54 | 25 | 0.0 | 3.0 | 0.00 | 0.00 | 0.00 | 74 | 1009.1 |
| 20260510062059 | 55 | 63 | 5.0 | 12.0 | 0.00 | 0.00 | 0.00 | 75 | 1011.2 |
| 20260510062050 | 55 | 23 | 0.0 | 2.0 | 0.00 | 0.00 | 0.00 | 75 | 1009.1 |
| 20260510061558 | 55 | 32 | 7.0 | 13.0 | 0.00 | 0.00 | 0.00 | 75 | 1011.0 |
| 20260510061551 | 55 | 30 | 0.0 | 2.0 | 0.00 | 0.00 | 0.00 | 75 | 1009.0 |
| 20260510061102 | 55 | 37 | 7.0 | 13.0 | 0.00 | 0.00 | 0.00 | 76 | 1010.9 |
| 20260510061046 | 55 | 5 | 0.0 | 2.0 | 0.00 | 0.00 | 0.00 | 76 | 1009.0 |
| 20260510060600 | 55 | 37 | 7.0 | 12.0 | 0.00 | 0.00 | 0.00 | 76 | 1010.9 |
| 20260510060545 | 55 | 37 | 0.0 | 2.0 | 0.00 | 0.00 | 0.00 | 76 | 1008.8 |
| 20260510060104 | 56 | 34 | 7.0 | 14.0 | 0.00 | 0.00 | 0.00 | 76 | 1010.8 |
| 20260510060044 | 56 | 45 | 0.0 | 0.0 | 0.00 | 0.00 | 0.00 | 76 | 1008.8 |
| 20260510055558 | 56 | 33 | 7.0 | 15.0 | 0.00 | 0.00 | 0.00 | 76 | 1010.8 |
| 20260510055542 | 56 | 9 | 0.0 | 1.0 | 0.00 | 0.00 | 0.00 | 76 | 1008.8 |
| 20260510055059 | 56 | 11 | 8.0 | 15.0 | 0.00 | 0.00 | 0.00 | 75 | 1010.6 |
| 20260510055041 | 56 | 5 | 0.0 | 2.0 | 0.00 | 0.00 | 0.00 | 75 | 1008.7 |
| 20260510054559 | 56 | 19 | 11.0 | 15.0 | 0.00 | 0.00 | 0.00 | 73 | 1010.4 |
| 20260510054544 | 56 | 360 | 0.0 | 2.0 | 0.00 | 0.00 | 0.00 | 74 | 1008.6 |
| 20260510054100 | 56 | 9 | 10.0 | 15.0 | 0.00 | 0.00 | 0.00 | 74 | 1010.4 |
| 20260510054039 | 57 | 14 | 0.0 | 4.0 | 0.00 | 0.00 | 0.00 | 75 | 1008.5 |
| 20260510053600 | 57 | 11 | 10.0 | 15.0 | 0.00 | 0.00 | 0.00 | 75 | 1010.4 |
| 20260510053539 | 57 | 347 | 0.0 | 3.0 | 0.00 | 0.00 | 0.00 | 75 | 1008.5 |
| 20260510053139 | 57 | 10 | 0.0 | 2.0 | 0.00 | 0.00 | 0.00 | 75 | 1008.4 |
| 20260510053105 | 57 | 352 | 8.0 | 14.0 | 0.00 | 0.00 | 0.00 | 75 | 1010.3 |
| 20260510052559 | 57 | 19 | 10.0 | 15.0 | 0.00 | 0.00 | 0.00 | 74 | 1010.3 |
| 20260510052536 | 57 | 348 | 0.0 | 2.0 | 0.00 | 0.00 | 0.00 | 74 | 1008.3 |
| 20260510052059 | 58 | 15 | 10.0 | 15.0 | 0.00 | 0.00 | 0.00 | 72 | 1010.2 |
| 20260510052035 | 58 | 355 | 0.0 | 2.0 | 0.00 | 0.00 | 0.00 | 72 | 1008.2 |
| 20260510051601 | 58 | 21 | 9.0 | 15.0 | 0.00 | 0.00 | 0.00 | 72 | 1010.0 |
| 20260510051534 | 58 | 360 | 0.0 | 2.0 | 0.00 | 0.00 | 0.00 | 72 | 1008.1 |
| 20260510051059 | 58 | 18 | 9.0 | 14.0 | 0.00 | 0.00 | 0.00 | 72 | 1009.9 |
| 20260510051032 | 58 | 355 | 0.0 | 2.0 | 0.00 | 0.00 | 0.00 | 73 | 1007.9 |
| 20260510050602 | 59 | 22 | 6.0 | 13.0 | 0.00 | 0.00 | 0.00 | 71 | 1010.0 |
| 20260510050531 | 59 | 360 | 0.0 | 5.0 | 0.00 | 0.00 | 0.00 | 72 | 1007.9 |
| 20260510050100 | 59 | 44 | 5.0 | 13.0 | 0.00 | 0.00 | 0.00 | 70 | 1009.9 |
| 20260510050029 | 59 | 325 | 0.0 | 5.0 | 0.00 | 0.00 | 0.00 | 70 | 1007.7 |
| 20260510045559 | 59 | 349 | 4.0 | 11.0 | 0.00 | 0.00 | 0.00 | 69 | 1009.8 |
| 20260510045532 | 59 | 344 | 0.0 | 3.0 | 0.00 | 0.00 | 0.00 | 70 | 1007.7 |
| 20260510045100 | 60 | 352 | 4.0 | 12.0 | 0.00 | 0.00 | 0.00 | 69 | 1009.7 |
| 20260510045028 | 60 | 345 | 0.0 | 3.0 | 0.00 | 0.00 | 0.00 | 70 | 1007.6 |
| 20260510044600 | 60 | 345 | 4.0 | 13.0 | 0.00 | 0.00 | 0.00 | 69 | 1009.6 |
| 20260510044526 | 60 | 355 | 0.0 | 2.0 | 0.00 | 0.00 | 0.00 | 70 | 1007.5 |
| 20260510044100 | 60 | 352 | 3.0 | 13.0 | 0.00 | 0.00 | 0.00 | 69 | 1009.4 |
| 20260510044027 | 60 | 343 | 0.0 | 3.0 | 0.00 | 0.00 | 0.00 | 69 | 1007.2 |
| 20260510043600 | 60 | 27 | 4.0 | 13.0 | 0.00 | 0.00 | 0.00 | 69 | 1009.3 |
| 20260510043528 | 61 | 323 | 0.0 | 4.0 | 0.00 | 0.00 | 0.00 | 69 | 1007.1 |
| 20260510043105 | 61 | 10 | 4.0 | 11.0 | 0.00 | 0.00 | 0.00 | 68 | 1009.2 |
| 20260510043024 | 61 | 340 | 0.0 | 4.0 | 0.00 | 0.00 | 0.00 | 69 | 1007.0 |
| 20260510042600 | 61 | 225 | 3.0 | 11.0 | 0.00 | 0.00 | 0.00 | 70 | 1009.2 |
| 20260510042523 | 61 | 320 | 0.0 | 3.0 | 0.00 | 0.00 | 0.00 | 70 | 1007.0 |
| 20260510042101 | 61 | 336 | 3.0 | 11.0 | 0.00 | 0.00 | 0.00 | 70 | 1008.9 |
| 20260510042025 | 61 | 329 | 0.0 | 2.0 | 0.00 | 0.00 | 0.00 | 70 | 1006.6 |
| 20260510041558 | 60 | 53 | 4.0 | 11.0 | 0.00 | 0.00 | 0.00 | 72 | 1008.7 |
| 20260510041520 | 60 | 355 | 0.0 | 3.0 | 0.00 | 0.00 | 0.00 | 73 | 1006.4 |
| 20260510041100 | 60 | 339 | 1.0 | 6.0 | 0.00 | 0.00 | 0.00 | 75 | 1008.8 |
| 20260510041020 | 60 | 304 | 0.0 | 3.0 | 0.00 | 0.00 | 0.00 | 76 | 1006.6 |
| 20260510040601 | 60 | 117 | 0.0 | 7.0 | 0.00 | 0.00 | 0.00 | 76 | 1008.6 |
| 20260510040518 | 60 | 296 | 0.0 | 5.0 | 0.00 | 0.00 | 0.00 | 77 | 1006.4 |
| 20260510040058 | 61 | 267 | 1.0 | 7.0 | 0.00 | 0.00 | 0.00 | 76 | 1008.6 |
| 20260510040017 | 61 | 292 | 0.0 | 5.0 | 0.00 | 0.00 | 0.00 | 76 | 1006.3 |
| 20260510035558 | 61 | 242 | 1.0 | 9.0 | 0.00 | 0.00 | 0.00 | 76 | 1008.6 |
| 20260510035517 | 61 | 305 | 1.0 | 5.0 | 0.00 | 0.00 | 0.00 | 76 | 1006.4 |
| 20260510035059 | 61 | 296 | 2.0 | 13.0 | 0.00 | 0.00 | 0.00 | 75 | 1008.5 |
| 20260510035017 | 61 | 288 | 2.0 | 7.0 | 0.00 | 0.00 | 0.00 | 76 | 1006.3 |
| 20260510034559 | 61 | 239 | 3.0 | 13.0 | 0.00 | 0.00 | 0.00 | 76 | 1008.2 |
| 20260510034517 | 61 | 300 | 3.0 | 7.0 | 0.00 | 0.00 | 0.00 | 76 | 1006.1 |
| 20260510034100 | 61 | 264 | 2.0 | 9.0 | 0.00 | 0.00 | 0.00 | 75 | 1008.1 |
| 20260510034017 | 61 | 290 | 0.0 | 3.0 | 0.00 | 0.00 | 0.00 | 76 | 1005.9 |
| 20260510033604 | 61 | 253 | 0.0 | 11.0 | 0.00 | 0.00 | 0.00 | 75 | 1008.0 |
| 20260510033516 | 61 | 313 | 0.0 | 1.0 | 0.00 | 0.00 | 0.00 | 76 | 1005.9 |
| 20260510033113 | 61 | 239 | 3.0 | 11.0 | 0.00 | 0.00 | 0.00 | 75 | 1007.4 |
| 20260510033016 | 61 | 214 | 0.0 | 0.0 | 0.00 | 0.00 | 0.00 | 76 | 1005.2 |
| 20260510032558 | 61 | 223 | 5.0 | 11.0 | 0.00 | 0.00 | 0.00 | 75 | 1007.4 |
| 20260510032516 | 61 | 214 | 0.0 | 0.0 | 0.00 | 0.00 | 0.00 | 76 | 1005.2 |
| 20260510032100 | 61 | 257 | 4.0 | 9.0 | 0.00 | 0.00 | 0.00 | 76 | 1007.3 |
| 20260510031558 | 60 | 266 | 4.0 | 10.0 | 0.00 | 0.00 | 0.00 | 76 | 1007.3 |
| 20260510031551 | 60 | 214 | 0.0 | 0.0 | 0.00 | 0.00 | 0.00 | 76 | 1005.1 |
| 20260510031058 | 60 | 227 | 4.0 | 10.0 | 0.00 | 0.00 | 0.00 | 76 | 1007.1 |
| 20260510031045 | 60 | 207 | 0.0 | 0.0 | 0.00 | 0.00 | 0.00 | 76 | 1005.0 |
| 20260510030558 | 60 | 222 | 3.0 | 9.0 | 0.00 | 0.00 | 0.00 | 75 | 1007.0 |
| 20260510030547 | 60 | 207 | 0.0 | 0.0 | 0.00 | 0.00 | 0.00 | 76 | 1004.8 |
| 20260510030104 | 60 | 233 | 3.0 | 11.0 | 0.00 | 0.00 | 0.00 | 75 | 1006.9 |
| 20260510030045 | 60 | 207 | 0.0 | 0.0 | 0.00 | 0.00 | 0.00 | 75 | 1004.8 |
| 20260510025558 | 60 | 223 | 3.0 | 11.0 | 0.00 | 0.00 | 0.00 | 75 | 1006.9 |
| 20260510025545 | 60 | 207 | 0.0 | 0.0 | 0.00 | 0.00 | 0.00 | 75 | 1004.8 |
| 20260510025102 | 61 | 241 | 4.0 | 9.0 | 0.00 | 0.00 | 0.00 | 75 | 1006.9 |
| 20260510025044 | 61 | 207 | 0.0 | 0.0 | 0.00 | 0.00 | 0.00 | 75 | 1004.8 |
| 20260510024606 | 60 | 218 | 4.0 | 9.0 | 0.00 | 0.00 | 0.00 | 75 | 1006.8 |
| 20260510024549 | 60 | 207 | 0.0 | 0.0 | 0.00 | 0.00 | 0.00 | 76 | 1004.8 |
| 20260510024100 | 60 | 220 | 5.0 | 9.0 | 0.00 | 0.00 | 0.00 | 75 | 1006.9 |
| 20260510024044 | 60 | 207 | 0.0 | 0.0 | 0.00 | 0.00 | 0.00 | 76 | 1004.8 |
| 20260510023557 | 60 | 215 | 3.0 | 8.0 | 0.00 | 0.00 | 0.00 | 76 | 1006.8 |
| 20260510023544 | 60 | 207 | 0.0 | 0.0 | 0.00 | 0.00 | 0.00 | 76 | 1004.7 |
| 20260510023058 | 60 | 221 | 4.0 | 8.0 | 0.00 | 0.00 | 0.00 | 76 | 1006.8 |
| 20260510023044 | 60 | 207 | 0.0 | 0.0 | 0.00 | 0.00 | 0.00 | 76 | 1004.7 |
| 20260510022600 | 60 | 215 | 3.0 | 8.0 | 0.00 | 0.00 | 0.00 | 76 | 1006.7 |
| 20260510022544 | 60 | 207 | 0.0 | 0.0 | 0.00 | 0.00 | 0.00 | 77 | 1004.7 |
| 20260510022100 | 61 | 205 | 3.0 | 8.0 | 0.00 | 0.00 | 0.00 | 77 | 1006.7 |
| 20260510022044 | 60 | 207 | 0.0 | 0.0 | 0.00 | 0.00 | 0.00 | 77 | 1004.6 |
| 20260510021643 | 61 | 207 | 0.0 | 0.0 | 0.00 | 0.00 | 0.00 | 77 | 1004.5 |
| 20260510021600 | 61 | 217 | 4.0 | 9.0 | 0.00 | 0.00 | 0.00 | 76 | 1006.6 |
| 20260510021059 | 61 | 201 | 4.0 | 9.0 | 0.00 | 0.00 | 0.00 | 76 | 1006.6 |
| 20260510021042 | 61 | 207 | 0.0 | 0.0 | 0.00 | 0.00 | 0.00 | 77 | 1004.5 |
| 20260510020559 | 61 | 200 | 4.0 | 9.0 | 0.00 | 0.00 | 0.00 | 76 | 1006.7 |
| 20260510020543 | 61 | 207 | 0.0 | 0.0 | 0.00 | 0.00 | 0.00 | 77 | 1004.5 |
| 20260510020059 | 61 | 218 | 4.0 | 10.0 | 0.00 | 0.00 | 0.00 | 76 | 1006.6 |
| 20260510020046 | 61 | 207 | 0.0 | 0.0 | 0.00 | 0.00 | 0.00 | 76 | 1004.5 |
| 20260510015600 | 61 | 209 | 4.0 | 10.0 | 0.00 | 0.00 | 0.00 | 76 | 1006.6 |
| 20260510015543 | 61 | 207 | 0.0 | 0.0 | 0.00 | 0.00 | 0.00 | 76 | 1004.5 |
| 20260510015058 | 61 | 239 | 4.0 | 11.0 | 0.00 | 0.00 | 0.00 | 76 | 1006.6 |
| 20260510015042 | 61 | 207 | 0.0 | 0.0 | 0.00 | 0.00 | 0.00 | 76 | 1004.4 |
| 20260510014559 | 62 | 202 | 4.0 | 11.0 | 0.00 | 0.00 | 0.00 | 76 | 1006.5 |
| 20260510014543 | 62 | 207 | 0.0 | 0.0 | 0.00 | 0.00 | 0.00 | 76 | 1004.2 |
| 20260510014101 | 62 | 237 | 5.0 | 15.0 | 0.00 | 0.00 | 0.00 | 76 | 1006.5 |
| 20260510014042 | 62 | 220 | 0.0 | 0.0 | 0.00 | 0.00 | 0.00 | 76 | 1004.3 |
| 20260510013601 | 62 | 248 | 5.0 | 15.0 | 0.00 | 0.00 | 0.00 | 75 | 1006.6 |
| 20260510013542 | 62 | 221 | 0.0 | 0.0 | 0.00 | 0.00 | 0.00 | 76 | 1004.3 |
| 20260510013059 | 61 | 239 | 5.0 | 11.0 | 0.00 | 0.00 | 0.00 | 76 | 1006.5 |
| 20260510013042 | 61 | 222 | 0.0 | 0.0 | 0.00 | 0.00 | 0.00 | 76 | 1004.3 |
| 20260510012600 | 61 | 245 | 4.0 | 11.0 | 0.00 | 0.00 | 0.00 | 76 | 1006.5 |
| 20260510012542 | 61 | 223 | 0.0 | 0.0 | 0.00 | 0.00 | 0.00 | 77 | 1004.3 |
| 20260510012058 | 61 | 241 | 4.0 | 8.0 | 0.00 | 0.00 | 0.00 | 77 | 1006.4 |
| 20260510012042 | 61 | 228 | 0.0 | 0.0 | 0.00 | 0.00 | 0.00 | 77 | 1004.3 |
| 20260510011558 | 61 | 215 | 3.0 | 7.0 | 0.00 | 0.00 | 0.00 | 77 | 1006.1 |
| 20260510011551 | 61 | 228 | 0.0 | 0.0 | 0.00 | 0.00 | 0.00 | 77 | 1004.0 |
| 20260510011059 | 61 | 209 | 3.0 | 7.0 | 0.00 | 0.00 | 0.00 | 76 | 1006.0 |
| 20260510011041 | 61 | 228 | 0.0 | 0.0 | 0.00 | 0.00 | 0.00 | 77 | 1003.8 |
| 20260510010557 | 61 | 200 | 2.0 | 6.0 | 0.00 | 0.00 | 0.00 | 76 | 1006.0 |
| 20260510010542 | 61 | 228 | 0.0 | 0.0 | 0.00 | 0.00 | 0.00 | 77 | 1003.7 |
| 20260510010042 | 61 | 228 | 0.0 | 0.0 | 0.00 | 0.00 | 0.00 | 77 | 1003.7 |
| 20260510005558 | 61 | 211 | 2.0 | 6.0 | 0.00 | 0.00 | 0.00 | 76 | 1006.0 |
| 20260510005541 | 61 | 228 | 0.0 | 0.0 | 0.00 | 0.00 | 0.00 | 76 | 1003.6 |
| 20260510005059 | 61 | 207 | 3.0 | 6.0 | 0.00 | 0.00 | 0.00 | 75 | 1005.9 |
| 20260510005041 | 61 | 228 | 0.0 | 0.0 | 0.00 | 0.00 | 0.00 | 76 | 1003.5 |
| 20260510004602 | 62 | 212 | 3.0 | 6.0 | 0.00 | 0.00 | 0.00 | 75 | 1005.9 |
| 20260510004545 | 62 | 228 | 0.0 | 0.0 | 0.00 | 0.00 | 0.00 | 75 | 1003.6 |
| 20260510004059 | 62 | 212 | 3.0 | 8.0 | 0.00 | 0.00 | 0.00 | 75 | 1005.9 |
| 20260510004041 | 62 | 228 | 0.0 | 0.0 | 0.00 | 0.00 | 0.00 | 75 | 1003.6 |
| 20260510003600 | 62 | 212 | 3.0 | 8.0 | 0.00 | 0.00 | 0.00 | 74 | 1006.0 |
| 20260510003541 | 62 | 228 | 0.0 | 0.0 | 0.00 | 0.00 | 0.00 | 75 | 1003.5 |
| 20260510003100 | 62 | 228 | 0.0 | 0.0 | 0.00 | 0.00 | 0.00 | 74 | 1003.5 |
| 20260510003059 | 62 | 225 | 3.0 | 9.0 | 0.00 | 0.00 | 0.00 | 74 | 1005.8 |
| 20260510002600 | 62 | 219 | 3.0 | 10.0 | 0.00 | 0.00 | 0.00 | 73 | 1005.8 |
| 20260510002541 | 62 | 228 | 0.0 | 0.0 | 0.00 | 0.00 | 0.00 | 73 | 1003.5 |
| 20260510002100 | 63 | 210 | 5.0 | 10.0 | 0.00 | 0.00 | 0.00 | 72 | 1005.9 |
| 20260510002039 | 63 | 228 | 0.0 | 0.0 | 0.00 | 0.00 | 0.00 | 73 | 1003.5 |
| 20260510001559 | 63 | 227 | 5.0 | 10.0 | 0.00 | 0.00 | 0.00 | 72 | 1005.9 |
| 20260510001541 | 63 | 228 | 0.0 | 0.0 | 0.00 | 0.00 | 0.00 | 73 | 1003.5 |
| 20260510001100 | 63 | 213 | 4.0 | 11.0 | 0.00 | 0.00 | 0.00 | 72 | 1005.9 |
| 20260510001040 | 63 | 242 | 0.0 | 0.0 | 0.00 | 0.00 | 0.00 | 73 | 1003.5 |
| 20260510000600 | 63 | 241 | 4.0 | 13.0 | 0.00 | 0.00 | 0.00 | 71 | 1005.9 |
| 20260510000540 | 63 | 242 | 0.0 | 0.0 | 0.00 | 0.00 | 0.00 | 72 | 1003.6 |
| 20260510000103 | 63 | 228 | 7.0 | 16.0 | 0.00 | 0.00 | 0.00 | 71 | 1005.8 |
| 20260510000044 | 63 | 244 | 0.0 | 0.0 | 0.00 | 0.00 | 0.00 | 72 | 1003.5 |
| 20260509235606 | 64 | 193 | 5.0 | 16.0 | 0.00 | 0.00 | 0.00 | 71 | 1005.7 |
| 20260509235539 | 64 | 221 | 0.0 | 2.0 | 0.00 | 0.00 | 0.00 | 71 | 1003.5 |
| 20260509235100 | 64 | 208 | 8.0 | 16.0 | 0.00 | 0.00 | 0.00 | 70 | 1005.8 |
| 20260509235038 | 64 | 218 | 0.0 | 2.0 | 0.00 | 0.00 | 0.00 | 70 | 1003.5 |
| 20260509234600 | 64 | 216 | 6.0 | 16.0 | 0.00 | 0.00 | 0.00 | 70 | 1005.8 |
| 20260509234556 | 64 | 242 | 0.0 | 1.0 | 0.00 | 0.00 | 0.00 | 70 | 1003.5 |
| 20260509234100 | 64 | 202 | 7.0 | 17.0 | 0.00 | 0.00 | 0.00 | 69 | 1005.7 |
| 20260509234037 | 64 | 228 | 0.0 | 1.0 | 0.00 | 0.00 | 0.00 | 69 | 1003.5 |
| 20260509233603 | 64 | 246 | 6.0 | 17.0 | 0.00 | 0.00 | 0.00 | 68 | 1005.8 |
| 20260509233537 | 64 | 244 | 0.0 | 2.0 | 0.00 | 0.00 | 0.00 | 69 | 1003.5 |
| 20260509233059 | 64 | 238 | 7.0 | 19.0 | 0.00 | 0.00 | 0.00 | 69 | 1005.8 |
| 20260509233041 | 64 | 251 | 0.0 | 2.0 | 0.00 | 0.00 | 0.00 | 69 | 1003.4 |
| 20260509232558 | 64 | 236 | 7.0 | 19.0 | 0.00 | 0.00 | 0.00 | 70 | 1005.8 |
| 20260509232538 | 64 | 209 | 0.0 | 2.0 | 0.00 | 0.00 | 0.00 | 70 | 1003.4 |
| 20260509232058 | 64 | 242 | 7.0 | 18.0 | 0.00 | 0.00 | 0.00 | 70 | 1005.6 |
| 20260509232038 | 64 | 254 | 0.0 | 2.0 | 0.00 | 0.00 | 0.00 | 71 | 1003.4 |
| 20260509231557 | 64 | 234 | 7.0 | 17.0 | 0.00 | 0.00 | 0.00 | 70 | 1005.7 |
| 20260509231548 | 64 | 242 | 0.0 | 1.0 | 0.00 | 0.00 | 0.00 | 70 | 1003.4 |
| 20260509231059 | 64 | 205 | 9.0 | 17.0 | 0.00 | 0.00 | 0.00 | 70 | 1005.8 |
| 20260509231037 | 64 | 220 | 0.0 | 1.0 | 0.00 | 0.00 | 0.00 | 70 | 1003.5 |
| 20260509230603 | 64 | 223 | 7.0 | 21.0 | 0.00 | 0.00 | 0.00 | 70 | 1005.9 |
| 20260509230537 | 64 | 257 | 0.0 | 1.0 | 0.00 | 0.00 | 0.00 | 71 | 1003.5 |
| 20260509230058 | 64 | 238 | 6.0 | 21.0 | 0.00 | 0.00 | 0.00 | 71 | 1005.7 |
| 20260509230037 | 64 | 253 | 0.0 | 1.0 | 0.00 | 0.01 | 0.00 | 71 | 1003.4 |
| 20260509225558 | 64 | 238 | 7.0 | 17.0 | 0.00 | 0.01 | 0.00 | 70 | 1005.7 |
| 20260509225536 | 64 | 240 | 0.0 | 1.0 | 0.00 | 0.01 | 0.00 | 71 | 1003.4 |
| 20260509225059 | 64 | 231 | 7.0 | 17.0 | 0.00 | 0.01 | 0.00 | 71 | 1005.7 |
| 20260509225036 | 64 | 263 | 0.0 | 1.0 | 0.00 | 0.01 | 0.00 | 72 | 1003.4 |
| 20260509224559 | 64 | 224 | 7.0 | 16.0 | 0.00 | 0.01 | 0.00 | 71 | 1005.8 |
| 20260509224536 | 64 | 273 | 0.0 | 4.0 | 0.00 | 0.01 | 0.00 | 72 | 1003.5 |
| 20260509224100 | 64 | 194 | 5.0 | 18.0 | 0.00 | 0.01 | 0.00 | 72 | 1005.8 |
| 20260509224036 | 64 | 234 | 0.0 | 4.0 | 0.00 | 0.01 | 0.00 | 73 | 1003.4 |
| 20260509223603 | 64 | 255 | 9.0 | 18.0 | 0.00 | 0.01 | 0.00 | 72 | 1005.7 |
| 20260509223536 | 64 | 238 | 0.0 | 1.0 | 0.00 | 0.01 | 0.00 | 73 | 1003.4 |
| 20260509223102 | 64 | 224 | 7.0 | 17.0 | 0.00 | 0.01 | 0.00 | 72 | 1005.8 |
| 20260509223036 | 64 | 225 | 0.0 | 8.0 | 0.00 | 0.01 | 0.00 | 72 | 1003.4 |
| 20260509222602 | 64 | 253 | 6.0 | 18.0 | 0.00 | 0.01 | 0.00 | 72 | 1005.8 |
| 20260509222535 | 64 | 268 | 0.0 | 2.0 | 0.00 | 0.01 | 0.00 | 73 | 1003.5 |
| 20260509222059 | 64 | 239 | 8.0 | 18.0 | 0.00 | 0.01 | 0.00 | 71 | 1005.7 |
| 20260509222036 | 64 | 281 | 0.0 | 2.0 | 0.00 | 0.01 | 0.00 | 72 | 1003.4 |
| 20260509221558 | 65 | 261 | 8.0 | 17.0 | 0.00 | 0.01 | 0.00 | 70 | 1005.8 |
| 20260509221535 | 65 | 259 | 0.0 | 2.0 | 0.00 | 0.01 | 0.00 | 70 | 1003.5 |
| 20260509221100 | 64 | 257 | 8.0 | 16.0 | 0.00 | 0.01 | 0.00 | 69 | 1005.7 |
| 20260509221037 | 64 | 290 | 0.0 | 1.0 | 0.00 | 0.01 | 0.00 | 69 | 1003.3 |
| 20260509220559 | 64 | 252 | 6.0 | 17.0 | 0.00 | 0.01 | 0.00 | 72 | 1005.6 |
| 20260509220534 | 64 | 269 | 0.0 | 1.0 | 0.00 | 0.01 | 0.00 | 72 | 1003.1 |
| 20260509220034 | 63 | 262 | 0.0 | 8.0 | 0.00 | 0.01 | 0.00 | 74 | 1003.0 |
| 20260509215558 | 63 | 263 | 6.0 | 22.0 | 0.00 | 0.01 | 0.00 | 74 | 1005.4 |
| 20260509215534 | 63 | 265 | 3.0 | 8.0 | 0.00 | 0.01 | 0.00 | 74 | 1003.2 |
| 20260509215058 | 63 | 217 | 6.0 | 15.0 | 0.00 | 0.01 | 0.00 | 74 | 1005.5 |
| 20260509215033 | 63 | 257 | 0.0 | 11.0 | 0.00 | 0.01 | 0.00 | 75 | 1003.5 |
| 20260509214631 | 63 | 288 | 4.0 | 19.0 | 0.00 | 0.01 | 0.00 | 73 | 1005.6 |
| 20260509214533 | 63 | 275 | 5.0 | 16.0 | 0.00 | 0.01 | 0.00 | 73 | 1003.4 |
| 20260509214057 | 66 | 288 | 3.0 | 25.0 | 0.00 | 0.01 | 0.00 | 68 | 1005.4 |
| 20260509214033 | 66 | 295 | 10.0 | 25.0 | 0.00 | 0.01 | 0.00 | 68 | 1003.2 |
| 20260509213559 | 68 | 287 | 8.0 | 25.0 | 0.00 | 0.01 | 0.00 | 61 | 1005.3 |
| 20260509213533 | 69 | 304 | 12.0 | 25.0 | 0.00 | 0.01 | 0.00 | 61 | 1002.9 |